Location: Unspecified
(0.0000°N, 0.0000°E)
Time: 13:50:28
(UTC+00:00)

LightSail 2 - Pass Details

Date: 13 September 2019
Orbit: 699 x 732 km, 24.0° (Epoch: 17 September)

Event Time Altitude Azimuth Distance (km) Brightness Sun altitude
Exits shadow 03:34:16 25° 108° (ESE) 1,405 7.1 -35.4°
Drops below altitude 10° 03:36:42 10° 89° (E) 2,156 8.4 -34.8°
Sets 03:39:18 0° 80° (E) 3,077 9.5 -34.1°
